Flag for U.S.A. Weather past 2 weeks in Coeur d'Alene, Idaho, U.S.A.

Now
34 °F

Clear.


Feels Like: 34 °F
Forecast: 36 / 43 °F
Wind: No wind

Location: Coeur d'Alene Weather Reporting System

Current Time: Jan 27, 2015 at 6:28:07 PM

Latest Report: Jan 27, 2015 at 5:55 PM


Visibility: 4 mi

Pressure: 30.01 "Hg

Humidity: 87%

Dew point: 30 °F

Location of Coeur d'AleneLocation

Historic Weather in Coeur d'Alene — Graph

°F

Coeur d'Alene temperature yesterday

Maximum temperature yesterday: 46 °F (at 2:35 PM)
Minimum temperature yesterday: 30 °F (at 10:35 PM)
Average temperature yesterday: 37 °F

Past Weeks' High & Low Weather Summary

 TemperatureHumidityPressure
High55 °F (Jan 25, 2:15 PM)100% (Jan 16, 8:55 PM)30.51 "Hg (Jan 16, 8:55 PM)
Low21 °F (Jan 15, 12:15 AM)67% (Jan 25, 2:15 PM)29.77 "Hg (Jan 18, 4:55 AM)
Average34 °F89%30.24 "Hg
* Reported Jan 12 5:15 PM — Jan 27 5:35 PM, Coeur d'Alene, Weather by CustomWeather, © 2014

Note: Actual official high and low records may vary slightly from our data, if they occured in-between our weather recording intervals... More about our weather records

Advertising

Coeur d'Alene weather history for previous 24 hours

 ConditionsComfort  
Time TempWeatherWind HumidityBarometerVisibility
5:35 PM
Jan 27
36 °FClear.No wind87%30.01 "Hg5 mi
5:15 PM36 °FClear.3 mph87%30.00 "Hg5 mi
4:55 PM36 °FClear.3 mph87%29.99 "Hg9 mi
4:35 PM37 °FSunny.No wind87%29.98 "Hg10 mi
4:15 PM41 °FSunny.5 mph81%29.98 "Hg10 mi
3:55 PM43 °FSunny.No wind81%29.98 "Hg10 mi
3:35 PM45 °FSunny.No wind76%29.98 "Hg10 mi
3:15 PM45 °FSunny.No wind81%29.98 "Hg10 mi
2:55 PM45 °FSunny.No wind76%29.98 "Hg10 mi
2:35 PM45 °FSunny.No wind76%29.97 "Hg10 mi
2:15 PM45 °FSunny.No wind76%29.97 "Hg10 mi
1:55 PM43 °FSunny.3 mph81%29.97 "Hg10 mi
1:35 PM43 °FSunny.No wind87%29.97 "Hg10 mi
1:15 PM41 °FSunny.3 mph87%29.97 "Hg10 mi
12:55 PM39 °FSunny.5 mph93%29.97 "Hg10 mi
12:35 PM37 °FSunny.6 mph75%29.98 "Hg10 mi
12:15 PM37 °FSunny.7 mph93%29.98 "Hg8 mi
11:55 AM36 °FScattered clouds.8 mph93%29.99 "Hg2 mi
11:35 AM36 °FLow clouds.7 mph93%30.00 "Hg1 mi
11:15 AM34 °FLow clouds.7 mph93%30.00 "Hg0 mi
10:55 AM34 °FLow clouds.7 mph87%30.01 "Hg0 mi
10:35 AM32 °FLow clouds.6 mph93%30.02 "Hg0 mi
10:15 AM30 °FLow clouds.6 mph93%30.02 "Hg0 mi
9:55 AM30 °FLow clouds.7 mph93%30.02 "Hg0 mi
9:35 AM30 °FLow clouds.7 mph93%30.02 "Hg1 mi
9:15 AM30 °FLow clouds.9 mph93%30.01 "Hg0 mi
8:55 AM30 °FLow clouds.8 mph93%30.01 "Hg0 mi
8:35 AM28 °FPartly sunny.7 mph93%30.00 "Hg2 mi
8:15 AM28 °FScattered clouds.8 mph93%30.00 "Hg2 mi
7:55 AM28 °FLow clouds.8 mph93%30.00 "Hg1 mi
7:35 AM28 °FLow clouds.7 mph86%29.99 "Hg1 mi
7:15 AM28 °FPassing clouds.7 mph93%29.99 "Hg1 mi
6:55 AM28 °FPassing clouds.7 mph93%30.00 "Hg2 mi
6:35 AM28 °FPassing clouds.9 mph93%29.99 "Hg2 mi
6:15 AM28 °FClear.7 mph86%29.99 "Hg10 mi
5:55 AM28 °FClear.7 mph93%29.99 "Hg10 mi
5:35 AM28 °FClear.8 mph93%29.99 "Hg10 mi
5:15 AM28 °FClear.5 mph93%29.99 "Hg10 mi
4:55 AM28 °FClear.7 mph86%29.99 "Hg10 mi
4:35 AM28 °FClear.6 mph93%29.99 "Hg10 mi
4:15 AM28 °FClear.6 mph93%29.99 "Hg10 mi
3:55 AM28 °FClear.7 mph86%29.99 "Hg10 mi
3:35 AM28 °FClear.7 mph93%30.00 "Hg10 mi
3:15 AM28 °FClear.6 mph93%30.00 "Hg10 mi
2:55 AM28 °FClear.6 mph93%30.00 "Hg10 mi
2:35 AM28 °FClear.6 mph93%30.00 "Hg10 mi
2:15 AM30 °FClear.9 mph86%30.00 "Hg10 mi
1:55 AM30 °FClear.8 mph86%30.00 "Hg10 mi
1:35 AM30 °FClear.9 mph86%30.00 "Hg10 mi
1:15 AM30 °FClear.7 mph93%30.00 "Hg10 mi
12:55 AM30 °FClear.9 mph93%30.00 "Hg10 mi
12:35 AM30 °FClear.7 mph93%30.00 "Hg10 mi
12:15 AM30 °FClear.7 mph93%30.00 "Hg10 mi
11:55 PM
Jan 26
30 °FClear.5 mph93%30.00 "Hg10 mi
11:35 PM30 °FClear.6 mph93%30.00 "Hg10 mi
11:15 PM30 °FClear.7 mph93%30.00 "Hg10 mi
10:55 PM32 °FClear.6 mph87%30.00 "Hg10 mi
10:35 PM30 °FClear.6 mph93%30.00 "Hg10 mi
10:15 PM32 °FClear.8 mph87%30.00 "Hg10 mi
9:55 PM32 °FClear.7 mph93%29.99 "Hg10 mi
9:35 PM32 °FClear.6 mph87%29.99 "Hg10 mi
9:15 PM32 °FClear.6 mph87%30.00 "Hg10 mi
8:55 PM34 °FClear.7 mph93%30.00 "Hg10 mi
8:15 PM34 °FClear.7 mph87%30.00 "Hg10 mi
7:55 PM34 °FClear.6 mph87%30.00 "Hg10 mi
7:35 PM36 °FClear.7 mph87%30.00 "Hg10 mi
6:55 PM36 °FClear.9 mph87%30.00 "Hg10 mi
6:35 PM36 °FClear.7 mph93%30.01 "Hg10 mi
6:15 PM36 °FClear.8 mph87%30.01 "Hg10 mi
Weather by CustomWeather, © 2014

See weather overviewHow to use our weather pages